Terminal Aerodrome Forecast
Issued by NWS Nashville, TN

Home | Current Version | Previous Version | Text Only | Print | Product List | Glossary On
Versions: 1 2 3 4 5 6 7 8 9 10 11 12 13 14 15 16
000
FTUS44 KOHX 240000 AAA
TAFBNA
TAF AMD
KBNA 240029Z 2400/2424 30005KT P6SM VCTS BKN040CB
     FM240200 35006KT P6SM BKN250
     FM240400 36005KT P6SM OVC025
     FM240900 36005KT P6SM OVC012
     FM241500 01007KT P6SM BKN025
     FM241800 36009KT P6SM SCT250=

USA.gov is the U.S. government's official web portal to all federal, state and local government web resources and services.